Powrót do katalogu

QIANFAN-224

AktywnyŁącznośćPO
NORAD 69853·PAYLOAD·🇨🇳 China

Wystrzelony Jul 5, 2026 z Wenchang Space Launch Site

Loading…

Następne Przeloty (najbliższe 24 godziny)

TLE

ŚwieżeSource: Space-Track

Epoka: Sep 14, 2026, 10:51 UTC

1 69853U 26155F   26257.45234642  .00000008  00000-0 -66732-5 0  9990
2 69853  89.0062  54.3104 0036011  31.3243 329.0047 13.57098202  9913

Śledź QIANFAN-224 w czasie rzeczywistym z AllMySat

Download on the App Store